Flag for Cambodia Weather past 2 weeks in Battambang, Cambodia

Now
73 °F

Passing clouds.


Feels Like: 76 °F
Forecast: 65 / 83 °F
Wind: 9 mph from Northeast

Location: Siemreap

Current Time: Dec 22, 2014 at 1:24:58 AM

Latest Report: Dec 22, 2014 at 12:30 AM


Visibility: 6 mi

Pressure: 29.92 "Hg

Humidity: 69%

Dew point: 63 °F

Location of BattambangLocation

Historic Weather in Battambang — Graph

°F

Battambang temperature yesterday

Maximum temperature yesterday: 88 °F (at 1:30 PM)
Minimum temperature yesterday: 70 °F (at 7:00 AM)
Average temperature yesterday: 80 °F

Past Weeks' High & Low Weather Summary

 TemperatureHumidityPressure
High90 °F (Dec 7, 11:30 AM)89% (Dec 7, 9:00 PM)30.09 "Hg (Dec 7, 9:00 PM)
Low64 °F (Dec 18, 7:30 AM)21% (Dec 12, 12:00 AM)29.74 "Hg (Dec 7, 3:00 PM)
Average80 °F63%29.90 "Hg
* Reported Midnight between Dec 6 and Dec 7 — Midnight between Dec 21 and Dec 22, Battambang, Weather by CustomWeather, © 2014

Note: Actual official high and low records may vary slightly from our data, if they occured in-between our weather recording intervals... More about our weather records

Advertising

Battambang weather history for previous 24 hours

 ConditionsComfort  
Time TempWeatherWind HumidityBarometerVisibility
12:00 AM
Dec 22
73 °FPassing clouds.8 mph69%29.92 "Hg6 mi
11:30 PM
Dec 21
75 °FPassing clouds.10 mph65%29.89 "HgN/A
11:00 PM75 °FPassing clouds.7 mph65%29.89 "HgN/A
10:30 PM75 °FPassing clouds.7 mph65%29.89 "HgN/A
10:00 PM77 °FPassing clouds.6 mph57%29.89 "HgN/A
9:30 PM77 °FPassing clouds.5 mph57%29.89 "HgN/A
9:00 PM77 °FPassing clouds.3 mph57%29.86 "HgN/A
8:30 PM77 °FPassing clouds.3 mph57%29.86 "HgN/A
8:00 PM79 °FPassing clouds.3 mph58%29.86 "HgN/A
7:30 PM79 °FPassing clouds.5 mph58%29.83 "HgN/A
7:00 PM79 °FPassing clouds.6 mph58%29.83 "HgN/A
6:00 PM82 °FPassing clouds.7 mph48%29.83 "HgN/A
5:30 PM84 °FPassing clouds.8 mph43%29.80 "HgN/A
5:00 PM86 °FPassing clouds.12 mph38%29.80 "HgN/A
4:30 PM88 °FPassing clouds.12 mph35%29.80 "HgN/A
4:00 PM88 °FPassing clouds.14 mph35%29.80 "HgN/A
3:30 PM88 °FScattered clouds.12 mph38%29.80 "HgN/A
3:00 PM88 °FScattered clouds.12 mph35%30.09 "HgN/A
2:30 PM88 °FScattered clouds.12 mph35%29.80 "HgN/A
2:00 PM88 °FScattered clouds.12 mph33%29.83 "HgN/A
1:30 PM88 °FScattered clouds.14 mph43%29.83 "HgN/A
1:00 PM86 °FScattered clouds.14 mph46%29.86 "HgN/A
12:30 PM86 °FScattered clouds.9 mph49%29.86 "HgN/A
12:00 PM84 °FScattered clouds.8 mph51%29.89 "HgN/A
11:30 AM84 °FScattered clouds.9 mph51%29.89 "HgN/A
11:00 AM81 °FScattered clouds.6 mph58%29.92 "HgN/A
10:30 AM81 °FScattered clouds.3 mph58%29.95 "HgN/A
9:30 AM79 °FBroken clouds.6 mph58%29.95 "HgN/A
9:00 AM77 °FBroken clouds.1 mph61%29.95 "HgN/A
8:30 AM75 °FBroken clouds.2 mph69%29.95 "HgN/A
8:00 AM73 °FScattered clouds.1 mph74%29.92 "HgN/A
7:30 AM70 °FScattered clouds.1 mph88%29.92 "HgN/A
7:00 AM70 °FScattered clouds.2 mph83%29.89 "Hg6 mi
1:00 AM73 °FClear.No wind78%29.86 "Hg6 mi
Weather by CustomWeather, © 2014

See weather overviewHow to use our weather pages